Tracking 19193 objects as of 24-Jun-2018
HD Live streaming from Space Station
objects crossing your sky now

FENGYUN 1C DEB

Track FENGYUN 1C DEB now!
10-day predictions


NORAD ID: 31997
Int'l Code: 1999-025CQA
Perigee: 843.6 km
Apogee: 1,303.2 km
Inclination: 102.5 °
Period: 106.5 minutes
Semi major axis: 7444 km
RCS: 0.013 m2 (small)
Launch date: May 10, 1999
Source: People's Republic of China (PRC)
Launch site: Taiyaun Space Center, China (TSC)

Note: This is SATELLITE DEBRIS
aabbcc
Your satellite tracking list
Your tracking list is empty




NASA's NSSDC Master Catalog

Two Line Element Set (TLE):
1 31997U 99025CQA 18174.84430119 +.00000608 +00000-0 +76782-3 0  9992
2 31997 102.5225 181.2652 0308680 254.2994 102.3882 13.51625777247419
Source of the keplerian elements: AFSPC